Weather History for Douglas, WY

Change the Weather History Date:

Wednesday, January 30, 2013

  Actual Average Record
Temperature  
Mean Temperature 18 °F 25 °F  
Max Temperature 35 °F 38 °F 57 °F (2003)
Min Temperature 0 °F 12 °F -9 °F (2000)
Degree Days  
Heating Degree Days 47 40  
Month to date heating degree days 1162 1202  
Since 1 July heating degree days 3883 4291  
Cooling Degree Days 0 0  
Month to date cooling degree days 0 0  
Year to date cooling degree days 0 0  
Moisture  
Dew Point 12 °F    
Average Humidity 69    
Maximum Humidity 87    
Minimum Humidity 50    
Precipitation  
Precipitation 0.00 in 0.02 in 0.04 in (2011)
Month to date precipitation 0.01 0.36  
Year to date precipitation 0.01 0.36  
Sea Level Pressure  
Sea Level Pressure 29.97 in    
Wind  
Wind Speed 12 mph (NW)    
Max Wind Speed 29 mph    
Max Gust Speed 33 mph    
Visibility 10 miles    
Events      
T = Trace of Precipitation, MM = Missing Value Source: NWS Daily Summary

Daily Weather History Graph

Daily Weather History Graph

Search for Another Location

Airport:

Trip Planner

Search our weather history database for the weather conditions in past years. The results will help you decide how hot, cold, wet, or windy it might be!

Date:

Astronomy

Jan. 30, 2013 Rise Set
Actual Time 7:17 AM MST 5:12 PM MST
Civil Twilight 6:47 AM MST 5:42 PM MST
Nautical Twilight 6:13 AM MST 6:16 PM MST
Astronomical Twilight 5:40 AM MST 6:49 PM MST
Moon 9:21 PM MST (1/30) 8:40 AM MST (1/30)
Length of Visible Light 10h 54m
Length of Day
9h 54m
Waning Gibbous, 87% of the Moon is Illuminated
Jan 30
Waning Gibbous
Feb 3
Last Quarter
Feb 10
New
Feb 17
First Quarter
Feb 25
Full

Hourly Weather History & Observations

Time (MST) Temp. Windchill Dew Point Humidity Pressure Visibility Wind Dir Wind Speed Gust Speed Precip Events Conditions
12:53 AM 8.1 °F -7.7 °F 3.0 °F 80% 30.09 in 10.0 mi WNW 12.7 mph - N/A   Clear
1:53 AM 3.9 °F -6.9 °F -0.0 °F 84% 30.08 in 10.0 mi NW 5.8 mph - N/A   Clear
2:53 AM 3.9 °F -6.9 °F -0.0 °F 84% 30.06 in 10.0 mi NW 5.8 mph - N/A   Clear
3:53 AM 3.0 °F -4.4 °F -0.9 °F 84% 30.06 in 10.0 mi NNW 3.5 mph - N/A   Clear
4:53 AM 1.0 °F - -2.9 °F 83% 30.03 in 10.0 mi Calm Calm - N/A   Mostly Cloudy
5:53 AM 8.1 °F - 1.9 °F 76% 30.00 in 10.0 mi Calm Calm - N/A   Overcast
6:53 AM 9.0 °F -0.9 °F 1.9 °F 73% 29.99 in 10.0 mi NNW 5.8 mph - N/A   Scattered Clouds
7:53 AM 12.0 °F 1.5 °F 6.1 °F 77% 29.99 in 10.0 mi NNW 6.9 mph - N/A   Overcast
8:53 AM 19.9 °F 9.3 °F 10.0 °F 65% 29.97 in 10.0 mi NW 9.2 mph - N/A   Overcast
9:53 AM 25.0 °F 13.1 °F 10.9 °F 55% 29.96 in 10.0 mi WNW 13.8 mph - N/A   Overcast
10:53 AM 28.0 °F 15.7 °F 12.9 °F 53% 29.95 in 10.0 mi WNW 17.3 mph - N/A   Overcast
11:53 AM 30.9 °F 17.5 °F 15.1 °F 52% 29.91 in 10.0 mi WNW 24.2 mph 29.9 mph N/A   Scattered Clouds
12:53 PM 32.0 °F 18.1 °F 18.0 °F 56% 29.92 in 10.0 mi WNW 27.6 mph 33.4 mph 0.01 in   Mostly Cloudy
1:53 PM 32.0 °F 19.2 °F 19.0 °F 59% 29.93 in 10.0 mi WNW 23.0 mph 29.9 mph N/A   Overcast
2:53 PM 34.0 °F 23.0 °F 19.0 °F 54% 29.93 in 10.0 mi WNW 18.4 mph - N/A   Overcast
3:53 PM 33.1 °F 22.6 °F 19.0 °F 56% 29.95 in 10.0 mi WNW 16.1 mph - N/A   Overcast
4:53 PM 30.9 °F 22.8 °F 19.0 °F 61% 29.97 in 10.0 mi WNW 9.2 mph - N/A   Overcast
5:53 PM 30.0 °F 21.1 °F 18.0 °F 61% 29.95 in 10.0 mi NW 10.4 mph 18.4 mph N/A   Overcast
6:53 PM 27.0 °F 18.0 °F 18.0 °F 69% 29.95 in 10.0 mi NW 9.2 mph - N/A   Partly Cloudy
7:53 PM 26.1 °F 15.6 °F 17.1 °F 69% 29.95 in 10.0 mi NNW 11.5 mph - N/A   Mostly Cloudy
8:53 PM 28.9 °F 16.9 °F 19.0 °F 67% 29.94 in 10.0 mi NW 17.3 mph - N/A   Overcast
9:33 PM 24.8 °F 11.9 °F 17.6 °F 74% 29.87 in 10.0 mi NNW 16.1 mph - N/A   Overcast
9:53 PM 25.0 °F 12.2 °F 18.0 °F 75% 29.99 in 10.0 mi NNW 16.1 mph 20.7 mph N/A   Overcast
10:26 PM 24.8 °F 14.6 °F 17.6 °F 74% 29.88 in 10.0 mi NW 10.4 mph 20.7 mph N/A   Overcast
10:53 PM 24.1 °F 13.7 °F 17.1 °F 75% 30.00 in 10.0 mi NW 10.4 mph - N/A   Overcast
11:53 PM 24.1 °F 13.7 °F 17.1 °F 75% 30.01 in 10.0 mi NW 10.4 mph - N/A   Overcast